Location: Meanaryar
(48.4161°N, 4.7315°W)
Time: 01:19:42
(UTC+00:00)

SL-08 RB Rocket - Pass Details

Date: 18 September 2020
Orbit: 647 x 684 km, 97.8° (Epoch: 31 October)

Event Time Altitude Azimuth Distance (km) Brightness Sun altitude
Exits shadow 19:32:41 - 157° (SSE) 2,692 6.5 -12.0°
Reaches altitude 10° 19:34:08 10° 156° (SSE) 2,103 5.9 -12.2°
Maximum altitude 19:38:42 69° 74° (ENE) 719 3.7 -12.9°
Drops below altitude 10° 19:43:15 10° 351° (N) 2,096 6.6 -13.7°
Sets 19:45:28 0° 349° (N) 3,007 7.5 -14.0°
